| time (UTC) | temp C | wind direction | speed KPH | gust KPH | rain 1hr cm | rain 24hr cm | rain mn cm | humidity % | barometer mb |
| 20260502225954 | 10 | 46 | 0.0 | 0.0 | 0.00 | 0.20 | 0.20 | 99 | 3410.7 |
| 20260502225450 | 10 | 39 | 0.0 | 0.0 | 0.00 | 0.20 | 0.20 | 99 | 3410.4 |
| 20260502224947 | 10 | 38 | 0.0 | 0.0 | 0.00 | 0.20 | 0.20 | 99 | 3410.3 |
| 20260502224443 | 10 | 44 | 0.0 | 0.0 | 0.00 | 0.20 | 0.20 | 99 | 3410.4 |
| 20260502223940 | 10 | 44 | 0.0 | 0.0 | 0.00 | 0.20 | 0.20 | 99 | 3410.4 |
| 20260502223438 | 10 | 55 | 0.0 | 0.0 | 0.00 | 0.20 | 0.20 | 99 | 3410.5 |
| 20260502222936 | 10 | 57 | 0.0 | 0.0 | 0.00 | 0.20 | 0.20 | 99 | 3410.4 |
| 20260502222433 | 10 | 56 | 0.0 | 0.0 | 0.00 | 0.20 | 0.20 | 99 | 3410.5 |
| 20260502221928 | 10 | 44 | 0.0 | 0.0 | 0.00 | 0.20 | 0.20 | 99 | 3410.5 |
| 20260502221425 | 10 | 44 | 0.0 | 0.0 | 0.00 | 0.20 | 0.20 | 99 | 3410.3 |
| 20260502220922 | 10 | 44 | 0.0 | 0.0 | 0.00 | 0.20 | 0.20 | 99 | 3410.5 |
| 20260502220418 | 10 | 44 | 0.0 | 0.0 | 0.00 | 0.20 | 0.20 | 99 | 3410.4 |
| 20260502215914 | 10 | 44 | 0.0 | 0.0 | 0.00 | 0.20 | 0.20 | 99 | 3410.5 |
| 20260502215412 | 10 | 44 | 0.0 | 0.0 | 0.00 | 0.20 | 0.20 | 99 | 3410.3 |
| 20260502214909 | 10 | 44 | 0.0 | 0.0 | 0.00 | 0.20 | 0.20 | 98 | 3410.3 |
| 20260502214405 | 10 | 44 | 0.0 | 0.0 | 0.00 | 0.20 | 0.20 | 98 | 3410.3 |
| 20260502213903 | 10 | 43 | 0.0 | 0.0 | 0.00 | 0.20 | 0.20 | 98 | 3410.4 |
| 20260502213359 | 10 | 57 | 0.0 | 3.2 | 0.00 | 0.20 | 0.20 | 98 | 3410.0 |
| 20260502212859 | 10 | 71 | 0.0 | 0.0 | 0.18 | 0.20 | 0.20 | 98 | 3410.4 |
| 20260502212356 | 10 | 59 | 0.0 | 0.0 | 0.18 | 0.20 | 0.20 | 98 | 3410.3 |
| 20260502211853 | 10 | 20 | 3.2 | 3.2 | 0.00 | 0.18 | 0.18 | 98 | 3410.2 |
| 20260502211349 | 10 | 53 | 0.0 | 0.0 | 0.13 | 0.18 | 0.18 | 98 | 3410.2 |
| 20260502210847 | 10 | 48 | 0.0 | 0.0 | 0.13 | 0.18 | 0.18 | 98 | 3410.5 |
| 20260502210344 | 10 | 30 | 0.0 | 0.0 | 0.00 | 0.15 | 0.15 | 97 | 3410.2 |
| 20260502205841 | 10 | 50 | 0.0 | 3.2 | 0.00 | 0.15 | 0.15 | 97 | 3410.3 |
| 20260502205337 | 10 | 54 | 0.0 | 0.0 | 0.00 | 0.15 | 0.15 | 96 | 3410.3 |
| 20260502204834 | 10 | 54 | 0.0 | 0.0 | 0.00 | 0.15 | 0.15 | 96 | 3410.1 |
| 20260502204331 | 10 | 54 | 0.0 | 0.0 | 0.00 | 0.15 | 0.15 | 95 | 3410.2 |
| 20260502203829 | 10 | 60 | 0.0 | 0.0 | 0.30 | 0.15 | 0.15 | 93 | 3410.2 |
| 20260502203326 | 10 | 58 | 0.0 | 0.0 | 0.48 | 0.15 | 0.15 | 92 | 3410.2 |
| 20260502202826 | 10 | 354 | 3.2 | 4.8 | 0.30 | 0.10 | 0.10 | 91 | 3410.2 |
| 20260502202324 | 11 | 58 | 0.0 | 0.0 | 0.30 | 0.08 | 0.08 | 89 | 3410.0 |
| 20260502201822 | 11 | 334 | 3.2 | 4.8 | 0.18 | 0.05 | 0.05 | 86 | 3410.2 |
| 20260502201318 | 11 | 199 | 3.2 | 4.8 | 0.30 | 0.05 | 0.05 | 82 | 3410.2 |
| 20260502200814 | 12 | 105 | 0.0 | 3.2 | 0.13 | 0.03 | 0.03 | 79 | 3410.1 |
| 20260502200310 | 12 | 82 | 0.0 | 0.0 | 0.00 | 0.00 | 0.00 | 75 | 3410.1 |
| 20260502195808 | 12 | 98 | 0.0 | 0.0 | 0.00 | 0.00 | 0.00 | 72 | 3410.1 |
| 20260502195305 | 12 | 117 | 3.2 | 4.8 | 0.00 | 0.00 | 0.00 | 71 | 3409.9 |
| 20260502194801 | 13 | 126 | 1.6 | 3.2 | 0.00 | 0.00 | 0.00 | 70 | 3410.0 |
| 20260502194259 | 13 | 175 | 4.8 | 8.0 | 0.00 | 0.00 | 0.00 | 68 | 3409.8 |
| 20260502193754 | 13 | 135 | 0.0 | 0.0 | 0.00 | 0.00 | 0.00 | 69 | 3409.6 |
| 20260502193252 | 13 | 140 | 1.6 | 4.8 | 0.00 | 0.00 | 0.00 | 68 | 3409.8 |
| 20260502192751 | 14 | 74 | 0.0 | 3.2 | 0.00 | 0.00 | 0.00 | 67 | 3409.5 |
| 20260502192249 | 14 | 60 | 0.0 | 0.0 | 0.00 | 0.00 | 0.00 | 65 | 3409.5 |
| 20260502191745 | 15 | 84 | 0.0 | 3.2 | 0.00 | 0.00 | 0.00 | 65 | 3409.7 |
| 20260502191244 | 15 | 113 | 0.0 | 0.0 | 0.00 | 0.00 | 0.00 | 66 | 3409.6 |
| 20260502190741 | 15 | 109 | 0.0 | 0.0 | 0.00 | 0.00 | 0.00 | 65 | 3409.6 |
| 20260502190239 | 15 | 60 | 1.6 | 3.2 | 0.00 | 0.00 | 0.00 | 61 | 3409.6 |
| 20260502185738 | 16 | 152 | 1.6 | 4.8 | 0.00 | 0.00 | 0.00 | 62 | 3409.8 |
| 20260502185235 | 16 | 91 | 1.6 | 3.2 | 0.00 | 0.00 | 0.00 | 62 | 3409.6 |
| 20260502184731 | 16 | 66 | 1.6 | 3.2 | 0.00 | 0.00 | 0.00 | 65 | 3409.6 |
| 20260502184227 | 15 | 115 | 1.6 | 3.2 | 0.00 | 0.00 | 0.00 | 66 | 3409.6 |
| 20260502183724 | 14 | 139 | 4.8 | 4.8 | 0.00 | 0.00 | 0.00 | 68 | 3409.6 |
| 20260502183220 | 14 | 14 | 0.0 | 0.0 | 0.00 | 0.00 | 0.00 | 65 | 3409.9 |
| 20260502182716 | 15 | 161 | 3.2 | 4.8 | 0.00 | 0.00 | 0.00 | 63 | 3409.8 |
| 20260502182211 | 15 | 68 | 1.6 | 3.2 | 0.00 | 0.00 | 0.00 | 61 | 3409.7 |
| 20260502181709 | 16 | 335 | 1.6 | 3.2 | 0.00 | 0.00 | 0.00 | 57 | 3409.5 |
| 20260502181208 | 16 | 270 | 1.6 | 3.2 | 0.00 | 0.00 | 0.00 | 57 | 3409.6 |
| 20260502180704 | 17 | 59 | 0.0 | 0.0 | 0.00 | 0.00 | 0.00 | 57 | 3409.6 |
| 20260502180202 | 16 | 337 | 3.2 | 4.8 | 0.00 | 0.00 | 0.00 | 63 | 3409.6 |
| 20260502170120 | 15 | 136 | 0.0 | 0.0 | 0.00 | 0.00 | 0.00 | 62 | 3410.5 |
| 20260502164107 | 16 | 354 | 3.2 | 4.8 | 0.00 | 0.00 | 0.00 | 56 | 3410.4 |
| 20260502163603 | 15 | 114 | 0.0 | 0.0 | 0.00 | 0.00 | 0.00 | 61 | 3410.6 |
| 20260502163100 | 15 | 3 | 4.8 | 4.8 | 0.00 | 0.00 | 0.00 | 58 | 3410.7 |
| 20260502162556 | 15 | 276 | 4.8 | 11.3 | 0.00 | 0.00 | 0.00 | 58 | 3410.6 |
| 20260502162053 | 15 | 337 | 0.0 | 3.2 | 0.00 | 0.00 | 0.00 | 58 | 3410.6 |
| 20260502161550 | 15 | 114 | 0.0 | 3.2 | 0.00 | 0.00 | 0.00 | 63 | 3410.7 |
| 20260502161048 | 15 | 26 | 4.8 | 8.0 | 0.00 | 0.00 | 0.00 | 59 | 3410.5 |
| 20260502160546 | 15 | 127 | 3.2 | 4.8 | 0.00 | 0.00 | 0.00 | 60 | 3410.9 |
| 20260502151959 | 13 | 59 | 0.0 | 3.2 | 0.00 | 0.00 | 0.00 | 74 | 3410.9 |
| 20260502151455 | 13 | 13 | 1.6 | 3.2 | 0.00 | 0.00 | 0.00 | 72 | 3410.9 |
| 20260502150952 | 13 | 111 | 0.0 | 0.0 | 0.00 | 0.00 | 0.00 | 74 | 3410.7 |
| 20260502150450 | 13 | 117 | 1.6 | 3.2 | 0.00 | 0.00 | 0.00 | 76 | 3410.7 |
| 20260502130336 | 7 | 265 | 0.0 | 0.0 | 0.00 | 0.00 | 0.00 | 99 | 3410.3 |
| 20260502123318 | 5 | 265 | 0.0 | 0.0 | 0.00 | 0.00 | 0.00 | 99 | 3410.2 |
| 20260502122815 | 5 | 265 | 0.0 | 0.0 | 0.00 | 0.00 | 0.00 | 99 | 3410.4 |
| 20260502122310 | 5 | 265 | 0.0 | 0.0 | 0.00 | 0.00 | 0.00 | 99 | 3410.3 |
| 20260502121809 | 5 | 265 | 0.0 | 0.0 | 0.00 | 0.00 | 0.00 | 99 | 3410.2 |
| 20260502121306 | 5 | 265 | 0.0 | 0.0 | 0.00 | 0.00 | 0.00 | 99 | 3410.2 |
| 20260502120803 | 5 | 265 | 0.0 | 0.0 | 0.00 | 0.00 | 0.00 | 99 | 3410.4 |
| 20260502120300 | 5 | 265 | 0.0 | 0.0 | 0.00 | 0.00 | 0.00 | 99 | 3410.1 |
| 20260502115757 | 5 | 265 | 0.0 | 0.0 | 0.00 | 0.00 | 0.00 | 99 | 3410.0 |
| 20260502115248 | 5 | 265 | 0.0 | 0.0 | 0.00 | 0.00 | 0.00 | 99 | 3410.1 |
| 20260502114744 | 5 | 265 | 0.0 | 0.0 | 0.00 | 0.00 | 0.00 | 99 | 3410.0 |
| 20260502114241 | 5 | 265 | 0.0 | 0.0 | 0.00 | 0.00 | 0.00 | 99 | 3410.0 |
| 20260502113738 | 4 | 265 | 0.0 | 0.0 | 0.00 | 0.00 | 0.00 | 99 | 3410.0 |
| 20260502113236 | 4 | 265 | 0.0 | 0.0 | 0.00 | 0.00 | 0.00 | 99 | 3409.7 |
| 20260502112734 | 4 | 265 | 0.0 | 0.0 | 0.00 | 0.00 | 0.00 | 99 | 3409.8 |
| 20260502112231 | 4 | 265 | 0.0 | 0.0 | 0.00 | 0.00 | 0.00 | 99 | 3409.6 |
| 20260502111728 | 3 | 265 | 0.0 | 0.0 | 0.00 | 0.00 | 0.00 | 99 | 3409.6 |
| 20260502111225 | 3 | 265 | 0.0 | 0.0 | 0.00 | 0.00 | 0.00 | 99 | 3409.5 |
| 20260502110723 | 3 | 265 | 0.0 | 0.0 | 0.00 | 0.00 | 0.00 | 99 | 3409.4 |
| 20260502110221 | 3 | 265 | 0.0 | 0.0 | 0.00 | 0.00 | 0.00 | 99 | 3409.6 |
| 20260502105719 | 3 | 265 | 0.0 | 0.0 | 0.00 | 0.00 | 0.00 | 99 | 3409.4 |
| 20260502105215 | 4 | 265 | 0.0 | 0.0 | 0.00 | 0.00 | 0.00 | 99 | 3409.4 |
| 20260502104712 | 4 | 265 | 0.0 | 0.0 | 0.00 | 0.00 | 0.00 | 99 | 3409.3 |
| 20260502104210 | 4 | 265 | 0.0 | 0.0 | 0.00 | 0.00 | 0.00 | 99 | 3409.3 |
| 20260502103707 | 4 | 265 | 0.0 | 0.0 | 0.00 | 0.00 | 0.00 | 99 | 3409.5 |
| 20260502103205 | 4 | 265 | 0.0 | 0.0 | 0.00 | 0.00 | 0.00 | 99 | 3409.3 |
| 20260502102702 | 4 | 265 | 0.0 | 0.0 | 0.00 | 0.00 | 0.00 | 99 | 3409.1 |
| 20260502102158 | 4 | 265 | 0.0 | 0.0 | 0.00 | 0.00 | 0.00 | 99 | 3409.2 |
| 20260502101656 | 5 | 265 | 0.0 | 0.0 | 0.00 | 0.00 | 0.00 | 99 | 3409.2 |
| 20260502101154 | 5 | 265 | 0.0 | 0.0 | 0.00 | 0.00 | 0.00 | 99 | 3409.3 |
| 20260502100653 | 5 | 265 | 0.0 | 0.0 | 0.00 | 0.00 | 0.00 | 99 | 3409.4 |
| 20260502100150 | 5 | 265 | 0.0 | 0.0 | 0.00 | 0.00 | 0.00 | 99 | 3409.3 |
| 20260502091124 | 3 | 265 | 0.0 | 0.0 | 0.00 | 0.00 | 0.00 | 99 | 3409.1 |
| 20260502090621 | 3 | 265 | 0.0 | 0.0 | 0.00 | 0.00 | 0.00 | 99 | 3409.2 |
| 20260502090118 | 4 | 265 | 0.0 | 0.0 | 0.00 | 0.00 | 0.00 | 99 | 3409.1 |
| 20260502071516 | 5 | 265 | 0.0 | 0.0 | 0.00 | 0.00 | 0.00 | 98 | 3409.3 |
| 20260502071014 | 5 | 265 | 0.0 | 0.0 | 0.00 | 0.00 | 0.00 | 98 | 3409.6 |
| 20260502070511 | 5 | 265 | 0.0 | 0.0 | 0.00 | 0.00 | 0.00 | 98 | 3409.5 |
| 20260502070010 | 5 | 265 | 0.0 | 0.0 | 0.00 | 0.00 | 0.00 | 98 | 3409.8 |
| 20260502065508 | 5 | 265 | 0.0 | 0.0 | 0.00 | 0.00 | 0.00 | 98 | 3409.6 |
| 20260502065005 | 5 | 265 | 0.0 | 0.0 | 0.00 | 0.00 | 0.00 | 98 | 3409.7 |
| 20260502064504 | 5 | 265 | 0.0 | 0.0 | 0.00 | 0.00 | 0.00 | 98 | 3409.6 |
| 20260502064000 | 5 | 265 | 0.0 | 0.0 | 0.00 | 0.00 | 0.00 | 98 | 3409.8 |
| 20260502063459 | 5 | 265 | 0.0 | 0.0 | 0.00 | 0.00 | 0.00 | 97 | 3409.9 |
| 20260502062955 | 5 | 265 | 0.0 | 0.0 | 0.00 | 0.00 | 0.00 | 97 | 3409.7 |
| 20260502062452 | 5 | 265 | 0.0 | 0.0 | 0.00 | 0.00 | 0.00 | 97 | 3409.9 |
| 20260502061951 | 5 | 265 | 0.0 | 0.0 | 0.00 | 0.00 | 0.00 | 97 | 3409.9 |
| 20260502061449 | 5 | 265 | 0.0 | 0.0 | 0.00 | 0.00 | 0.00 | 97 | 3409.8 |
| 20260502060944 | 5 | 265 | 0.0 | 0.0 | 0.00 | 0.00 | 0.00 | 97 | 3409.6 |
| 20260502060440 | 5 | 265 | 0.0 | 0.0 | 0.00 | 0.00 | 0.00 | 97 | 3409.8 |
| 20260502055937 | 5 | 265 | 0.0 | 0.0 | 0.00 | 0.00 | 0.00 | 97 | 3409.7 |
| 20260502055434 | 5 | 265 | 0.0 | 0.0 | 0.00 | 0.00 | 0.00 | 96 | 3409.9 |
| 20260502054929 | 5 | 265 | 0.0 | 0.0 | 0.00 | 0.00 | 0.00 | 96 | 3410.1 |
| 20260502054426 | 5 | 265 | 0.0 | 0.0 | 0.00 | 0.00 | 0.00 | 96 | 3409.8 |
| 20260502053923 | 5 | 265 | 0.0 | 0.0 | 0.00 | 0.00 | 0.00 | 96 | 3409.8 |
| 20260502053420 | 5 | 265 | 0.0 | 0.0 | 0.00 | 0.00 | 0.00 | 96 | 3409.6 |
| 20260502052918 | 6 | 265 | 0.0 | 0.0 | 0.00 | 0.00 | 0.00 | 96 | 3409.8 |
| 20260502052416 | 6 | 265 | 0.0 | 0.0 | 0.00 | 0.00 | 0.00 | 95 | 3409.7 |
| 20260502051914 | 6 | 265 | 0.0 | 0.0 | 0.00 | 0.00 | 0.00 | 95 | 3409.7 |
| 20260502051412 | 6 | 265 | 0.0 | 0.0 | 0.00 | 0.00 | 0.00 | 95 | 3410.1 |
| 20260502050908 | 6 | 265 | 0.0 | 0.0 | 0.00 | 0.00 | 0.00 | 95 | 3410.2 |
| 20260502050405 | 6 | 265 | 0.0 | 0.0 | 0.00 | 0.00 | 0.00 | 95 | 3410.1 |
| 20260502045902 | 6 | 265 | 0.0 | 0.0 | 0.00 | 0.00 | 0.00 | 94 | 3410.3 |
| 20260502045359 | 6 | 265 | 0.0 | 0.0 | 0.00 | 0.00 | 0.00 | 94 | 3410.1 |
| 20260502044856 | 6 | 265 | 0.0 | 0.0 | 0.00 | 0.00 | 0.00 | 94 | 3410.1 |
| 20260502044351 | 6 | 265 | 0.0 | 0.0 | 0.00 | 0.00 | 0.00 | 94 | 3410.1 |
| 20260502043849 | -17 | 0.0 | 0.0 | 0.00 | 0.00 | 0.00 | 3410.5 | ||
| 20260502043346 | -17 | 0.0 | 0.0 | 0.00 | 0.00 | 0.00 | 3410.4 | ||
| 20260502042840 | 6 | 265 | 0.0 | 0.0 | 0.00 | 0.00 | 0.00 | 92 | 3410.6 |
| 20260502042338 | 6 | 265 | 0.0 | 0.0 | 0.00 | 0.00 | 0.00 | 92 | 3410.3 |
| 20260502041835 | 6 | 265 | 0.0 | 0.0 | 0.00 | 0.00 | 0.00 | 92 | 3410.4 |
| 20260502041332 | 6 | 265 | 0.0 | 0.0 | 0.00 | 0.00 | 0.00 | 92 | 3410.2 |
| 20260502040829 | 6 | 265 | 0.0 | 0.0 | 0.00 | 0.00 | 0.00 | 91 | 3410.5 |
| 20260502040326 | 6 | 265 | 0.0 | 0.0 | 0.00 | 0.00 | 0.00 | 91 | 3410.5 |
| 20260502035822 | 6 | 265 | 0.0 | 0.0 | 0.00 | 0.00 | 0.00 | 91 | 3410.3 |
| 20260502035319 | 7 | 265 | 0.0 | 0.0 | 0.00 | 0.00 | 0.00 | 90 | 3410.4 |
| 20260502034817 | 7 | 265 | 0.0 | 0.0 | 0.00 | 0.00 | 0.00 | 90 | 3410.5 |
| 20260502034315 | 7 | 265 | 0.0 | 0.0 | 0.00 | 0.00 | 0.00 | 89 | 3410.5 |
| 20260502033813 | 7 | 265 | 0.0 | 0.0 | 0.00 | 0.00 | 0.00 | 88 | 3410.7 |
| 20260502033310 | 7 | 265 | 0.0 | 0.0 | 0.00 | 0.00 | 0.00 | 88 | 3410.7 |
| 20260502032807 | 7 | 265 | 0.0 | 0.0 | 0.00 | 0.00 | 0.00 | 88 | 3410.6 |
| 20260502032305 | 7 | 265 | 0.0 | 0.0 | 0.00 | 0.00 | 0.00 | 87 | 3410.7 |
| 20260502031800 | 7 | 265 | 0.0 | 0.0 | 0.00 | 0.00 | 0.00 | 87 | 3410.8 |
| 20260502031259 | 7 | 265 | 0.0 | 0.0 | 0.00 | 0.00 | 0.00 | 86 | 3410.8 |
| 20260502030757 | 8 | 265 | 0.0 | 0.0 | 0.00 | 0.00 | 0.00 | 85 | 3410.6 |
| 20260502030254 | 8 | 265 | 0.0 | 0.0 | 0.00 | 0.00 | 0.00 | 85 | 3410.8 |
| 20260502025751 | 8 | 265 | 0.0 | 0.0 | 0.00 | 0.00 | 0.00 | 85 | 3410.6 |
| 20260502025249 | 8 | 265 | 0.0 | 0.0 | 0.00 | 0.00 | 0.00 | 84 | 3410.5 |
| 20260502024747 | 8 | 265 | 0.0 | 0.0 | 0.00 | 0.00 | 0.00 | 83 | 3410.7 |
| 20260502024244 | 8 | 265 | 0.0 | 0.0 | 0.00 | 0.00 | 0.00 | 83 | 3410.4 |
| 20260502023742 | 8 | 265 | 0.0 | 0.0 | 0.00 | 0.00 | 0.00 | 82 | 3410.5 |
| 20260502023240 | 8 | 265 | 0.0 | 0.0 | 0.00 | 0.00 | 0.00 | 81 | 3410.5 |
| 20260502022738 | 8 | 265 | 0.0 | 0.0 | 0.00 | 0.00 | 0.00 | 80 | 3410.4 |
| 20260502022233 | 9 | 265 | 0.0 | 0.0 | 0.00 | 0.00 | 0.00 | 80 | 3410.4 |
| 20260502021731 | 9 | 265 | 0.0 | 0.0 | 0.00 | 0.00 | 0.00 | 79 | 3410.5 |
| 20260502021228 | 9 | 265 | 0.0 | 0.0 | 0.00 | 0.00 | 0.00 | 79 | 3410.4 |
| 20260502020725 | 10 | 265 | 0.0 | 0.0 | 0.00 | 0.00 | 0.00 | 77 | 3410.0 |
| 20260502020222 | 10 | 265 | 0.0 | 0.0 | 0.00 | 0.00 | 0.00 | 77 | 3410.3 |
| 20260502015720 | 10 | 265 | 0.0 | 0.0 | 0.00 | 0.00 | 0.00 | 76 | 3410.0 |
| 20260502015216 | 10 | 265 | 0.0 | 0.0 | 0.00 | 0.00 | 0.00 | 76 | 3410.1 |
| 20260502014714 | 10 | 265 | 0.0 | 0.0 | 0.00 | 0.00 | 0.00 | 74 | 3410.1 |
| 20260502014210 | 10 | 265 | 0.0 | 0.0 | 0.00 | 0.00 | 0.00 | 73 | 3410.2 |
| 20260502013707 | 11 | 265 | 0.0 | 0.0 | 0.00 | 0.00 | 0.00 | 73 | 3410.2 |
| 20260502013202 | 11 | 265 | 0.0 | 0.0 | 0.00 | 0.00 | 0.00 | 70 | 3410.2 |
| 20260502012659 | 11 | 265 | 0.0 | 0.0 | 0.00 | 0.00 | 0.00 | 69 | 3410.0 |
| 20260502012158 | 11 | 265 | 0.0 | 0.0 | 0.00 | 0.00 | 0.00 | 68 | 3409.9 |
| 20260502011654 | 11 | 265 | 0.0 | 0.0 | 0.00 | 0.00 | 0.00 | 67 | 3409.8 |
| 20260502011149 | 11 | 265 | 0.0 | 0.0 | 0.00 | 0.00 | 0.00 | 67 | 3409.8 |
| 20260502010648 | 12 | 265 | 0.0 | 0.0 | 0.00 | 0.00 | 0.00 | 65 | 3409.5 |
| 20260502010143 | 12 | 265 | 0.0 | 0.0 | 0.00 | 0.00 | 0.00 | 63 | 3409.5 |
| 20260502005641 | 12 | 265 | 0.0 | 0.0 | 0.00 | 0.00 | 0.00 | 63 | 3409.3 |
| 20260502005139 | 12 | 265 | 1.6 | 3.2 | 0.00 | 0.00 | 0.00 | 60 | 3409.4 |
| 20260502004634 | 12 | 22 | 0.0 | 0.0 | 0.00 | 0.00 | 0.00 | 60 | 3409.1 |
| 20260502004131 | 13 | 22 | 0.0 | 0.0 | 0.00 | 0.00 | 0.00 | 60 | 3408.8 |
| 20260502003629 | 13 | 22 | 0.0 | 0.0 | 0.00 | 0.00 | 0.00 | 59 | 3408.7 |
| 20260502003126 | 13 | 22 | 0.0 | 0.0 | 0.00 | 0.00 | 0.00 | 57 | 3408.8 |
| 20260502002622 | 13 | 22 | 0.0 | 0.0 | 0.00 | 0.00 | 0.00 | 58 | 3408.8 |
| 20260502002120 | 13 | 22 | 0.0 | 0.0 | 0.00 | 0.00 | 0.00 | 57 | 3408.5 |
| 20260502001617 | 14 | 21 | 0.0 | 0.0 | 0.00 | 0.00 | 0.00 | 54 | 3408.6 |
| 20260502001114 | 14 | 21 | 0.0 | 0.0 | 0.00 | 0.00 | 0.00 | 54 | 3408.5 |
| 20260502000613 | 14 | 348 | 0.0 | 0.0 | 0.00 | 0.00 | 0.00 | 54 | 3408.4 |
| 20260502000110 | 14 | 348 | 0.0 | 3.2 | 0.00 | 0.00 | 0.00 | 53 | 3408.4 |
| 20260501235605 | 14 | 337 | 3.2 | 4.8 | 0.00 | 0.00 | 0.00 | 53 | 3408.2 |
| 20260501235102 | 14 | 275 | 0.0 | 0.0 | 0.00 | 0.00 | 0.00 | 53 | 3408.0 |
| 20260501234557 | 14 | 8 | 3.2 | 4.8 | 0.00 | 0.00 | 0.00 | 53 | 3408.2 |
| 20260501234055 | 14 | 8 | 0.0 | 0.0 | 0.00 | 0.00 | 0.00 | 54 | 3408.3 |
| 20260501233553 | 14 | 9 | 0.0 | 0.0 | 0.00 | 0.00 | 0.00 | 54 | 3408.3 |
| 20260501233050 | 15 | 8 | 0.0 | 0.0 | 0.00 | 0.00 | 0.00 | 52 | 3408.1 |
| 20260501232546 | 15 | 9 | 0.0 | 0.0 | 0.00 | 0.00 | 0.00 | 51 | 3408.1 |
| 20260501232043 | 15 | 13 | 3.2 | 4.8 | 0.00 | 0.00 | 0.00 | 50 | 3408.0 |
| 20260501231541 | 15 | 265 | 4.8 | 8.0 | 0.00 | 0.00 | 0.00 | 49 | 3408.0 |
| 20260501231039 | 15 | 112 | 3.2 | 4.8 | 0.00 | 0.00 | 0.00 | 49 | 3408.1 |
| 20260501230538 | 15 | 17 | 3.2 | 4.8 | 0.00 | 0.00 | 0.00 | 50 | 3407.9 |
| 20260501230035 | 15 | 3 | 4.8 | 8.0 | 0.00 | 0.00 | 0.00 | 50 | 3407.8 |